PWSweather.com
Personal Weather Stations
Station Observations
UGLTEWKE1
3 Beckford Close, BeckfordGB GL20 7

3 Beckford CloseBeckfordGB GL20 7

Lat: 52.01582, Lon: -2.037782

Elevation: 112

Station Type: Davis Vantage Pro2

http://www.theshieling.net/weatherdavis.php

High Low Average
Temperature 53.8°F12.1°C 41.4°F5.2°C 49.8°F9.9°C
Dew Point 47.7°F8.7°C 37.4°F3.0°C 45.1°F7.3°C
Winds 30.0 mph 48.3 kmh Calm Calm 15.0 mph SW24.1 kmh SW
Wind Gusts 43.0 mph69.2 kmh -- 24.0 mph38.6 kmh
Humidity 90% 73% 84%
Pressure 29.75 in1007.5 mb 29.31 in992.6 mb -
Precipitation 0.12 in3.0 mm - -
Hour Temp Dew Point Humidity Winds Wind Gusts Pressure Precip Precip Rate Daily Precip Total
12:00 AM 50.2°F10.1°C 47.1°F8.4°C 89% 10.0 mph SW16.1 kmh SW 16.0 mph25.7 kmh 29.75 in1007.5 mb 0.00 in0.0 mm 0.00 in0.0 mm 0.01 in0.3 mm
12:05 AM 50.4°F10.2°C 47.3°F8.5°C 89% 11.0 mph SSW17.7 kmh SSW 18.0 mph29.0 kmh 29.75 in1007.5 mb 0.00 in0.0 mm 0.00 in0.0 mm 0.01 in0.3 mm
12:10 AM 50.5°F10.3°C 47.5°F8.6°C 89% 10.0 mph SW16.1 kmh SW 17.0 mph27.4 kmh 29.75 in1007.5 mb 0.00 in0.0 mm 0.00 in0.0 mm 0.01 in0.3 mm
12:15 AM 50.5°F10.3°C 47.5°F8.6°C 89% 11.0 mph SSW17.7 kmh SSW 19.0 mph30.6 kmh 29.74 in1007.1 mb 0.00 in0.0 mm 0.00 in0.0 mm 0.01 in0.3 mm
12:20 AM 50.7°F10.4°C 47.7°F8.7°C 89% 11.0 mph SSW17.7 kmh SSW 18.0 mph29.0 kmh 29.74 in1007.1 mb 0.00 in0.0 mm 0.00 in0.0 mm 0.01 in0.3 mm
12:25 AM 50.7°F10.4°C 47.7°F8.7°C 89% 11.0 mph SW17.7 kmh SW 18.0 mph29.0 kmh 29.74 in1007.1 mb 0.00 in0.0 mm 0.00 in0.0 mm 0.01 in0.3 mm
12:30 AM 50.7°F10.4°C 47.7°F8.7°C 89% 11.0 mph SW17.7 kmh SW 21.0 mph33.8 kmh 29.74 in1007.1 mb 0.00 in0.0 mm 0.00 in0.0 mm 0.01 in0.3 mm
12:35 AM 50.7°F10.4°C 47.7°F8.7°C 89% 13.0 mph SW20.9 kmh SW 20.0 mph32.2 kmh 29.73 in1006.8 mb 0.00 in0.0 mm 0.00 in0.0 mm 0.01 in0.3 mm
12:40 AM 50.7°F10.4°C 47.7°F8.7°C 89% 12.0 mph SW19.3 kmh SW 22.0 mph35.4 kmh 29.73 in1006.8 mb 0.00 in0.0 mm 0.00 in0.0 mm 0.01 in0.3 mm
12:45 AM 50.7°F10.4°C 47.7°F8.7°C 89% 11.0 mph SW17.7 kmh SW 19.0 mph30.6 kmh 29.72 in1006.4 mb 0.00 in0.0 mm 0.00 in0.0 mm 0.01 in0.3 mm
12:50 AM 50.7°F10.4°C 47.7°F8.7°C 89% 12.0 mph SW19.3 kmh SW 18.0 mph29.0 kmh 29.72 in1006.4 mb 0.00 in0.0 mm 0.00 in0.0 mm 0.01 in0.3 mm
12:55 AM 50.7°F10.4°C 47.3°F8.5°C 88% 13.0 mph SW20.9 kmh SW 20.0 mph32.2 kmh 29.73 in1006.8 mb 0.00 in0.0 mm 0.00 in0.0 mm 0.01 in0.3 mm
01:00 AM 50.7°F10.4°C 47.7°F8.7°C 89% 12.0 mph SSW19.3 kmh SSW 19.0 mph30.6 kmh 29.72 in1006.4 mb 0.00 in0.0 mm 0.00 in0.0 mm 0.01 in0.3 mm
01:05 AM 50.7°F10.4°C 47.7°F8.7°C 89% 13.0 mph SW20.9 kmh SW 19.0 mph30.6 kmh 29.72 in1006.4 mb 0.00 in0.0 mm 0.00 in0.0 mm 0.01 in0.3 mm
01:10 AM 50.7°F10.4°C 47.3°F8.5°C 88% 12.0 mph SSW19.3 kmh SSW 19.0 mph30.6 kmh 29.72 in1006.4 mb 0.00 in0.0 mm 0.00 in0.0 mm 0.01 in0.3 mm
01:15 AM 50.7°F10.4°C 47.7°F8.7°C 89% 12.0 mph SSW19.3 kmh SSW 20.0 mph32.2 kmh 29.72 in1006.4 mb 0.00 in0.0 mm 0.00 in0.0 mm 0.01 in0.3 mm
01:20 AM 50.5°F10.3°C 47.5°F8.6°C 89% 12.0 mph SSW19.3 kmh SSW 18.0 mph29.0 kmh 29.71 in1006.1 mb 0.00 in0.0 mm 0.00 in0.0 mm 0.01 in0.3 mm
01:25 AM 50.5°F10.3°C 47.5°F8.6°C 89% 13.0 mph SSW20.9 kmh SSW 22.0 mph35.4 kmh 29.71 in1006.1 mb 0.00 in0.0 mm 0.00 in0.0 mm 0.01 in0.3 mm
01:30 AM 50.5°F10.3°C 47.5°F8.6°C 89% 12.0 mph SW19.3 kmh SW 20.0 mph32.2 kmh 29.71 in1006.1 mb 0.00 in0.0 mm 0.00 in0.0 mm 0.01 in0.3 mm
01:35 AM 50.5°F10.3°C 47.5°F8.6°C 89% 13.0 mph SW20.9 kmh SW 23.0 mph37.0 kmh 29.71 in1006.1 mb 0.00 in0.0 mm 0.00 in0.0 mm 0.01 in0.3 mm
01:40 AM 50.5°F10.3°C 47.5°F8.6°C 89% 13.0 mph SSW20.9 kmh SSW 24.0 mph38.6 kmh 29.71 in1006.1 mb 0.00 in0.0 mm 0.00 in0.0 mm 0.01 in0.3 mm
01:45 AM 50.5°F10.3°C 47.5°F8.6°C 89% 14.0 mph SSW22.5 kmh SSW 22.0 mph35.4 kmh 29.71 in1006.1 mb 0.00 in0.0 mm 0.00 in0.0 mm 0.01 in0.3 mm
01:50 AM 50.4°F10.2°C 47.3°F8.5°C 89% 12.0 mph SSW19.3 kmh SSW 19.0 mph30.6 kmh 29.71 in1006.1 mb 0.00 in0.0 mm 0.00 in0.0 mm 0.01 in0.3 mm
01:55 AM 50.4°F10.2°C 47.3°F8.5°C 89% 13.0 mph SSW20.9 kmh SSW 20.0 mph32.2 kmh 29.71 in1006.1 mb 0.00 in0.0 mm 0.00 in0.0 mm 0.01 in0.3 mm
02:00 AM 50.4°F10.2°C 47.3°F8.5°C 89% 14.0 mph SSW22.5 kmh SSW 22.0 mph35.4 kmh 29.70 in1005.8 mb 0.00 in0.0 mm 0.00 in0.0 mm 0.01 in0.3 mm
02:05 AM 50.4°F10.2°C 47.3°F8.5°C 89% 14.0 mph SW22.5 kmh SW 22.0 mph35.4 kmh 29.70 in1005.8 mb 0.00 in0.0 mm 0.00 in0.0 mm 0.01 in0.3 mm
02:10 AM 50.4°F10.2°C 47.3°F8.5°C 89% 12.0 mph SSW19.3 kmh SSW 22.0 mph35.4 kmh 29.70 in1005.8 mb 0.00 in0.0 mm 0.00 in0.0 mm 0.01 in0.3 mm
02:15 AM 50.4°F10.2°C 47.3°F8.5°C 89% 12.0 mph SSW19.3 kmh SSW 21.0 mph33.8 kmh 29.70 in1005.8 mb 0.00 in0.0 mm 0.00 in0.0 mm 0.01 in0.3 mm
02:20 AM 50.4°F10.2°C 47.3°F8.5°C 89% 13.0 mph SSW20.9 kmh SSW 19.0 mph30.6 kmh 29.70 in1005.8 mb 0.00 in0.0 mm 0.00 in0.0 mm 0.01 in0.3 mm
02:25 AM 50.4°F10.2°C 47.3°F8.5°C 89% 12.0 mph SSW19.3 kmh SSW 21.0 mph33.8 kmh 29.70 in1005.8 mb 0.00 in0.0 mm 0.00 in0.0 mm 0.01 in0.3 mm
02:30 AM 50.4°F10.2°C 47.3°F8.5°C 89% 10.0 mph SW16.1 kmh SW 18.0 mph29.0 kmh 29.70 in1005.8 mb 0.00 in0.0 mm 0.00 in0.0 mm 0.01 in0.3 mm
02:35 AM 50.2°F10.1°C 47.1°F8.4°C 89% 12.0 mph SW19.3 kmh SW 19.0 mph30.6 kmh 29.70 in1005.8 mb 0.00 in0.0 mm 0.00 in0.0 mm 0.01 in0.3 mm
02:40 AM 50.2°F10.1°C 47.1°F8.4°C 89% 12.0 mph SW19.3 kmh SW 18.0 mph29.0 kmh 29.69 in1005.4 mb 0.00 in0.0 mm 0.00 in0.0 mm 0.01 in0.3 mm
02:45 AM 50.2°F10.1°C 47.1°F8.4°C 89% 11.0 mph SW17.7 kmh SW 17.0 mph27.4 kmh 29.69 in1005.4 mb 0.00 in0.0 mm 0.00 in0.0 mm 0.01 in0.3 mm
02:50 AM 50.4°F10.2°C 47.3°F8.5°C 89% 12.0 mph SW19.3 kmh SW 20.0 mph32.2 kmh 29.69 in1005.4 mb 0.00 in0.0 mm 0.00 in0.0 mm 0.01 in0.3 mm
02:55 AM 50.4°F10.2°C 47.3°F8.5°C 89% 12.0 mph SW19.3 kmh SW 21.0 mph33.8 kmh 29.69 in1005.4 mb 0.00 in0.0 mm 0.00 in0.0 mm 0.01 in0.3 mm
03:00 AM 50.5°F10.3°C 47.5°F8.6°C 89% 13.0 mph SSW20.9 kmh SSW 20.0 mph32.2 kmh 29.68 in1005.1 mb 0.00 in0.0 mm 0.00 in0.0 mm 0.01 in0.3 mm
03:05 AM 50.5°F10.3°C 47.1°F8.4°C 88% 14.0 mph SSW22.5 kmh SSW 23.0 mph37.0 kmh 29.68 in1005.1 mb 0.00 in0.0 mm 0.00 in0.0 mm 0.01 in0.3 mm
03:10 AM 50.5°F10.3°C 47.1°F8.4°C 88% 13.0 mph SSW20.9 kmh SSW 24.0 mph38.6 kmh 29.68 in1005.1 mb 0.00 in0.0 mm 0.00 in0.0 mm 0.01 in0.3 mm
03:15 AM 50.5°F10.3°C 47.5°F8.6°C 89% 14.0 mph SSW22.5 kmh SSW 22.0 mph35.4 kmh 29.67 in1004.7 mb 0.00 in0.0 mm 0.00 in0.0 mm 0.01 in0.3 mm
03:20 AM 50.5°F10.3°C 47.1°F8.4°C 88% 13.0 mph SSW20.9 kmh SSW 22.0 mph35.4 kmh 29.67 in1004.7 mb 0.00 in0.0 mm 0.00 in0.0 mm 0.01 in0.3 mm
03:25 AM 50.4°F10.2°C 47.3°F8.5°C 89% 12.0 mph SSW19.3 kmh SSW 20.0 mph32.2 kmh 29.67 in1004.7 mb 0.00 in0.0 mm 0.00 in0.0 mm 0.01 in0.3 mm
03:30 AM 50.4°F10.2°C 47.3°F8.5°C 89% 11.0 mph SSW17.7 kmh SSW 18.0 mph29.0 kmh 29.67 in1004.7 mb 0.00 in0.0 mm 0.00 in0.0 mm 0.01 in0.3 mm
03:35 AM 50.4°F10.2°C 47.3°F8.5°C 89% 12.0 mph SSW19.3 kmh SSW 19.0 mph30.6 kmh 29.67 in1004.7 mb 0.00 in0.0 mm 0.00 in0.0 mm 0.01 in0.3 mm
03:40 AM 50.4°F10.2°C 46.9°F8.3°C 88% 11.0 mph SSW17.7 kmh SSW 17.0 mph27.4 kmh 29.67 in1004.7 mb 0.00 in0.0 mm 0.00 in0.0 mm 0.01 in0.3 mm
03:45 AM 50.4°F10.2°C 46.9°F8.3°C 88% 12.0 mph SW19.3 kmh SW 19.0 mph30.6 kmh 29.67 in1004.7 mb 0.00 in0.0 mm 0.00 in0.0 mm 0.01 in0.3 mm
03:50 AM 50.5°F10.3°C 47.1°F8.4°C 88% 14.0 mph SW22.5 kmh SW 24.0 mph38.6 kmh 29.67 in1004.7 mb 0.00 in0.0 mm 0.00 in0.0 mm 0.01 in0.3 mm
03:55 AM 50.5°F10.3°C 47.1°F8.4°C 88% 12.0 mph SSW19.3 kmh SSW 17.0 mph27.4 kmh 29.66 in1004.4 mb 0.00 in0.0 mm 0.00 in0.0 mm 0.01 in0.3 mm
04:00 AM 50.5°F10.3°C 47.1°F8.4°C 88% 13.0 mph SW20.9 kmh SW 20.0 mph32.2 kmh 29.66 in1004.4 mb 0.00 in0.0 mm 0.00 in0.0 mm 0.01 in0.3 mm
04:05 AM 50.4°F10.2°C 46.9°F8.3°C 88% 12.0 mph SSW19.3 kmh SSW 21.0 mph33.8 kmh 29.65 in1004.1 mb 0.00 in0.0 mm 0.00 in0.0 mm 0.01 in0.3 mm
04:10 AM 50.4°F10.2°C 46.9°F8.3°C 88% 12.0 mph SW19.3 kmh SW 19.0 mph30.6 kmh 29.65 in1004.1 mb 0.00 in0.0 mm 0.00 in0.0 mm 0.01 in0.3 mm
04:15 AM 50.4°F10.2°C 46.9°F8.3°C 88% 13.0 mph SW20.9 kmh SW 19.0 mph30.6 kmh 29.65 in1004.1 mb 0.00 in0.0 mm 0.00 in0.0 mm 0.01 in0.3 mm
04:20 AM 50.5°F10.3°C 47.1°F8.4°C 88% 14.0 mph SW22.5 kmh SW 21.0 mph33.8 kmh 29.65 in1004.1 mb 0.00 in0.0 mm 0.00 in0.0 mm 0.01 in0.3 mm
04:25 AM 50.4°F10.2°C 46.9°F8.3°C 88% 14.0 mph SW22.5 kmh SW 27.0 mph43.5 kmh 29.65 in1004.1 mb 0.00 in0.0 mm 0.00 in0.0 mm 0.01 in0.3 mm
04:30 AM 50.4°F10.2°C 46.9°F8.3°C 88% 16.0 mph SW25.7 kmh SW 22.0 mph35.4 kmh 29.65 in1004.1 mb 0.00 in0.0 mm 0.00 in0.0 mm 0.01 in0.3 mm
04:35 AM 50.4°F10.2°C 46.6°F8.1°C 87% 17.0 mph SW27.4 kmh SW 25.0 mph40.2 kmh 29.64 in1003.7 mb 0.00 in0.0 mm 0.00 in0.0 mm 0.01 in0.3 mm
04:40 AM 50.4°F10.2°C 46.9°F8.3°C 88% 15.0 mph SW24.1 kmh SW 24.0 mph38.6 kmh 29.64 in1003.7 mb 0.00 in0.0 mm 0.00 in0.0 mm 0.01 in0.3 mm
04:45 AM 50.4°F10.2°C 46.6°F8.1°C 87% 16.0 mph SW25.7 kmh SW 24.0 mph38.6 kmh 29.64 in1003.7 mb 0.00 in0.0 mm 0.00 in0.0 mm 0.01 in0.3 mm
04:50 AM 50.5°F10.3°C 46.6°F8.1°C 86% 17.0 mph SW27.4 kmh SW 26.0 mph41.8 kmh 29.64 in1003.7 mb 0.00 in0.0 mm 0.00 in0.0 mm 0.01 in0.3 mm
04:55 AM 50.4°F10.2°C 46.6°F8.1°C 87% 15.0 mph SW24.1 kmh SW 23.0 mph37.0 kmh 29.64 in1003.7 mb 0.00 in0.0 mm 0.00 in0.0 mm 0.01 in0.3 mm
05:00 AM 50.4°F10.2°C 46.4°F8.0°C 86% 16.0 mph SW25.7 kmh SW 26.0 mph41.8 kmh 29.64 in1003.7 mb 0.00 in0.0 mm 0.00 in0.0 mm 0.01 in0.3 mm
05:05 AM 50.4°F10.2°C 46.4°F8.0°C 86% 17.0 mph SW27.4 kmh SW 23.0 mph37.0 kmh 29.64 in1003.7 mb 0.00 in0.0 mm 0.00 in0.0 mm 0.01 in0.3 mm
05:10 AM 50.4°F10.2°C 46.4°F8.0°C 86% 15.0 mph SW24.1 kmh SW 27.0 mph43.5 kmh 29.64 in1003.7 mb 0.00 in0.0 mm 0.00 in0.0 mm 0.01 in0.3 mm
05:15 AM 50.4°F10.2°C 46.4°F8.0°C 86% 16.0 mph SW25.7 kmh SW 25.0 mph40.2 kmh 29.63 in1003.4 mb 0.00 in0.0 mm 0.00 in0.0 mm 0.01 in0.3 mm
05:20 AM 50.4°F10.2°C 46.4°F8.0°C 86% 16.0 mph SW25.7 kmh SW 24.0 mph38.6 kmh 29.63 in1003.4 mb 0.00 in0.0 mm 0.00 in0.0 mm 0.01 in0.3 mm
05:25 AM 50.2°F10.1°C 46.2°F7.9°C 86% 15.0 mph SW24.1 kmh SW 23.0 mph37.0 kmh 29.63 in1003.4 mb 0.00 in0.0 mm 0.00 in0.0 mm 0.01 in0.3 mm
05:30 AM 50.2°F10.1°C 46.2°F7.9°C 86% 15.0 mph SW24.1 kmh SW 24.0 mph38.6 kmh 29.62 in1003.0 mb 0.00 in0.0 mm 0.00 in0.0 mm 0.01 in0.3 mm
05:35 AM 50.0°F10.0°C 46.2°F7.9°C 87% 17.0 mph SW27.4 kmh SW 24.0 mph38.6 kmh 29.62 in1003.0 mb 0.00 in0.0 mm 0.00 in0.0 mm 0.01 in0.3 mm
05:40 AM 49.8°F9.9°C 46.0°F7.8°C 87% 16.0 mph SW25.7 kmh SW 24.0 mph38.6 kmh 29.62 in1003.0 mb 0.00 in0.0 mm 0.00 in0.0 mm 0.01 in0.3 mm
05:45 AM 49.8°F9.9°C 46.0°F7.8°C 87% 17.0 mph SW27.4 kmh SW 25.0 mph40.2 kmh 29.62 in1003.0 mb 0.00 in0.0 mm 0.00 in0.0 mm 0.01 in0.3 mm
05:50 AM 49.8°F9.9°C 46.4°F8.0°C 88% 19.0 mph SW30.6 kmh SW 27.0 mph43.5 kmh 29.62 in1003.0 mb 0.01 in0.3 mm 0.09 in2.3 mm 0.01 in0.3 mm
05:55 AM 49.8°F9.9°C 46.4°F8.0°C 88% 18.0 mph SW29.0 kmh SW 27.0 mph43.5 kmh 29.62 in1003.0 mb 0.01 in0.3 mm 0.00 in0.0 mm 0.01 in0.3 mm
06:00 AM 49.8°F9.9°C 46.4°F8.0°C 88% 19.0 mph SW30.6 kmh SW 29.0 mph46.7 kmh 29.62 in1003.0 mb 0.01 in0.3 mm 0.00 in0.0 mm 0.01 in0.3 mm
06:05 AM 49.6°F9.8°C 46.2°F7.9°C 88% 19.0 mph SW30.6 kmh SW 26.0 mph41.8 kmh 29.62 in1003.0 mb 0.01 in0.3 mm 0.00 in0.0 mm 0.01 in0.3 mm
06:10 AM 49.5°F9.7°C 46.4°F8.0°C 89% 15.0 mph SW24.1 kmh SW 28.0 mph45.1 kmh 29.61 in1002.7 mb 0.01 in0.3 mm 0.00 in0.0 mm 0.01 in0.3 mm
06:15 AM 49.5°F9.7°C 46.4°F8.0°C 89% 18.0 mph SW29.0 kmh SW 26.0 mph41.8 kmh 29.61 in1002.7 mb 0.01 in0.3 mm 0.00 in0.0 mm 0.01 in0.3 mm
06:20 AM 49.5°F9.7°C 46.6°F8.1°C 90% 17.0 mph SW27.4 kmh SW 23.0 mph37.0 kmh 29.60 in1002.4 mb 0.01 in0.3 mm 0.00 in0.0 mm 0.01 in0.3 mm
06:25 AM 49.3°F9.6°C 46.4°F8.0°C 90% 16.0 mph SW25.7 kmh SW 24.0 mph38.6 kmh 29.60 in1002.4 mb 0.01 in0.3 mm 0.00 in0.0 mm 0.01 in0.3 mm
06:30 AM 49.5°F9.7°C 46.6°F8.1°C 90% 16.0 mph SW25.7 kmh SW 24.0 mph38.6 kmh 29.60 in1002.4 mb 0.01 in0.3 mm 0.00 in0.0 mm 0.01 in0.3 mm
06:35 AM 49.5°F9.7°C 46.6°F8.1°C 90% 17.0 mph SW27.4 kmh SW 24.0 mph38.6 kmh 29.60 in1002.4 mb 0.01 in0.3 mm 0.00 in0.0 mm 0.01 in0.3 mm
06:40 AM 49.5°F9.7°C 46.6°F8.1°C 90% 15.0 mph SW24.1 kmh SW 23.0 mph37.0 kmh 29.60 in1002.4 mb 0.01 in0.3 mm 0.00 in0.0 mm 0.01 in0.3 mm
06:45 AM 49.5°F9.7°C 46.4°F8.0°C 89% 16.0 mph SW25.7 kmh SW 25.0 mph40.2 kmh 29.60 in1002.4 mb 0.01 in0.3 mm 0.00 in0.0 mm 0.01 in0.3 mm
06:50 AM 49.5°F9.7°C 46.4°F8.0°C 89% 16.0 mph SW25.7 kmh SW 24.0 mph38.6 kmh 29.60 in1002.4 mb 0.00 in0.0 mm 0.00 in0.0 mm 0.01 in0.3 mm
06:55 AM 49.5°F9.7°C 46.4°F8.0°C 89% 15.0 mph SW24.1 kmh SW 24.0 mph38.6 kmh 29.59 in1002.0 mb 0.00 in0.0 mm 0.00 in0.0 mm 0.01 in0.3 mm
07:00 AM 49.5°F9.7°C 46.4°F8.0°C 89% 17.0 mph SW27.4 kmh SW 28.0 mph45.1 kmh 29.59 in1002.0 mb 0.00 in0.0 mm 0.00 in0.0 mm 0.01 in0.3 mm
07:05 AM 49.6°F9.8°C 46.6°F8.1°C 89% 19.0 mph SW30.6 kmh SW 27.0 mph43.5 kmh 29.59 in1002.0 mb 0.00 in0.0 mm 0.00 in0.0 mm 0.01 in0.3 mm
07:10 AM 49.6°F9.8°C 46.2°F7.9°C 88% 19.0 mph SW30.6 kmh SW 28.0 mph45.1 kmh 29.59 in1002.0 mb 0.00 in0.0 mm 0.00 in0.0 mm 0.01 in0.3 mm
07:15 AM 49.6°F9.8°C 46.2°F7.9°C 88% 16.0 mph SW25.7 kmh SW 24.0 mph38.6 kmh 29.59 in1002.0 mb 0.00 in0.0 mm 0.00 in0.0 mm 0.01 in0.3 mm
07:20 AM 49.6°F9.8°C 46.2°F7.9°C 88% 15.0 mph SW24.1 kmh SW 23.0 mph37.0 kmh 29.59 in1002.0 mb 0.00 in0.0 mm 0.00 in0.0 mm 0.01 in0.3 mm
07:25 AM 49.6°F9.8°C 46.2°F7.9°C 88% 15.0 mph SW24.1 kmh SW 23.0 mph37.0 kmh 29.59 in1002.0 mb 0.00 in0.0 mm 0.00 in0.0 mm 0.01 in0.3 mm
07:30 AM 49.6°F9.8°C 46.2°F7.9°C 88% 15.0 mph SW24.1 kmh SW 23.0 mph37.0 kmh 29.59 in1002.0 mb 0.00 in0.0 mm 0.00 in0.0 mm 0.01 in0.3 mm
07:35 AM 49.6°F9.8°C 46.2°F7.9°C 88% 15.0 mph SW24.1 kmh SW 24.0 mph38.6 kmh 29.58 in1001.7 mb 0.00 in0.0 mm 0.00 in0.0 mm 0.01 in0.3 mm
07:40 AM 49.8°F9.9°C 46.0°F7.8°C 87% 16.0 mph SW25.7 kmh SW 24.0 mph38.6 kmh 29.58 in1001.7 mb 0.00 in0.0 mm 0.00 in0.0 mm 0.01 in0.3 mm
07:45 AM 49.8°F9.9°C 46.0°F7.8°C 87% 14.0 mph SW22.5 kmh SW 22.0 mph35.4 kmh 29.58 in1001.7 mb 0.00 in0.0 mm 0.00 in0.0 mm 0.01 in0.3 mm
07:50 AM 50.2°F10.1°C 46.2°F7.9°C 86% 14.0 mph SW22.5 kmh SW 21.0 mph33.8 kmh 29.58 in1001.7 mb 0.00 in0.0 mm 0.00 in0.0 mm 0.01 in0.3 mm
07:55 AM 50.0°F10.0°C 46.0°F7.8°C 86% 15.0 mph SW24.1 kmh SW 24.0 mph38.6 kmh 29.57 in1001.4 mb 0.00 in0.0 mm 0.00 in0.0 mm 0.01 in0.3 mm
08:00 AM 50.2°F10.1°C 46.2°F7.9°C 86% 14.0 mph SW22.5 kmh SW 22.0 mph35.4 kmh 29.57 in1001.4 mb 0.00 in0.0 mm 0.00 in0.0 mm 0.01 in0.3 mm
08:05 AM 50.2°F10.1°C 45.9°F7.7°C 85% 15.0 mph SW24.1 kmh SW 22.0 mph35.4 kmh 29.57 in1001.4 mb 0.00 in0.0 mm 0.00 in0.0 mm 0.01 in0.3 mm
08:10 AM 50.2°F10.1°C 45.9°F7.7°C 85% 17.0 mph SSW27.4 kmh SSW 24.0 mph38.6 kmh 29.57 in1001.4 mb 0.00 in0.0 mm 0.00 in0.0 mm 0.01 in0.3 mm
08:15 AM 49.8°F9.9°C 45.9°F7.7°C 86% 14.0 mph SW22.5 kmh SW 24.0 mph38.6 kmh 29.57 in1001.4 mb 0.00 in0.0 mm 0.00 in0.0 mm 0.01 in0.3 mm
08:20 AM 50.2°F10.1°C 45.9°F7.7°C 85% 14.0 mph SW22.5 kmh SW 24.0 mph38.6 kmh 29.57 in1001.4 mb 0.00 in0.0 mm 0.00 in0.0 mm 0.01 in0.3 mm
08:25 AM 50.2°F10.1°C 45.9°F7.7°C 85% 16.0 mph SW25.7 kmh SW 27.0 mph43.5 kmh 29.57 in1001.4 mb 0.00 in0.0 mm 0.00 in0.0 mm 0.01 in0.3 mm
08:30 AM 50.4°F10.2°C 45.7°F7.6°C 84% 15.0 mph SW24.1 kmh SW 24.0 mph38.6 kmh 29.57 in1001.4 mb 0.00 in0.0 mm 0.00 in0.0 mm 0.01 in0.3 mm
08:35 AM 50.4°F10.2°C 45.7°F7.6°C 84% 16.0 mph SW25.7 kmh SW 25.0 mph40.2 kmh 29.57 in1001.4 mb 0.00 in0.0 mm 0.00 in0.0 mm 0.01 in0.3 mm
08:40 AM 50.4°F10.2°C 45.7°F7.6°C 84% 15.0 mph SW24.1 kmh SW 23.0 mph37.0 kmh 29.57 in1001.4 mb 0.00 in0.0 mm 0.00 in0.0 mm 0.01 in0.3 mm
08:45 AM 50.4°F10.2°C 45.3°F7.4°C 83% 15.0 mph SW24.1 kmh SW 27.0 mph43.5 kmh 29.57 in1001.4 mb 0.00 in0.0 mm 0.00 in0.0 mm 0.01 in0.3 mm
08:50 AM 50.5°F10.3°C 45.5°F7.5°C 83% 17.0 mph SW27.4 kmh SW 30.0 mph48.3 kmh 29.57 in1001.4 mb 0.00 in0.0 mm 0.00 in0.0 mm 0.01 in0.3 mm
08:55 AM 50.5°F10.3°C 45.5°F7.5°C 83% 17.0 mph SSW27.4 kmh SSW 27.0 mph43.5 kmh 29.56 in1001.0 mb 0.00 in0.0 mm 0.00 in0.0 mm 0.01 in0.3 mm
09:00 AM 50.5°F10.3°C 45.3°F7.4°C 82% 18.0 mph SW29.0 kmh SW 25.0 mph40.2 kmh 29.56 in1001.0 mb 0.00 in0.0 mm 0.00 in0.0 mm 0.01 in0.3 mm
09:05 AM 50.7°F10.4°C 45.1°F7.3°C 81% 18.0 mph SW29.0 kmh SW 28.0 mph45.1 kmh 29.56 in1001.0 mb 0.00 in0.0 mm 0.00 in0.0 mm 0.01 in0.3 mm
09:10 AM 50.9°F10.5°C 45.3°F7.4°C 81% 17.0 mph SW27.4 kmh SW 26.0 mph41.8 kmh 29.55 in1000.7 mb 0.00 in0.0 mm 0.00 in0.0 mm 0.01 in0.3 mm
09:15 AM 50.7°F10.4°C 44.8°F7.1°C 80% 18.0 mph SW29.0 kmh SW 28.0 mph45.1 kmh 29.55 in1000.7 mb 0.00 in0.0 mm 0.00 in0.0 mm 0.01 in0.3 mm
09:20 AM 51.1°F10.6°C 45.1°F7.3°C 80% 20.0 mph SW32.2 kmh SW 32.0 mph51.5 kmh 29.55 in1000.7 mb 0.00 in0.0 mm 0.00 in0.0 mm 0.01 in0.3 mm
09:25 AM 51.3°F10.7°C 45.0°F7.2°C 79% 19.0 mph SW30.6 kmh SW 29.0 mph46.7 kmh 29.54 in1000.3 mb 0.00 in0.0 mm 0.00 in0.0 mm 0.01 in0.3 mm
09:30 AM 51.3°F10.7°C 45.3°F7.4°C 80% 16.0 mph SW25.7 kmh SW 25.0 mph40.2 kmh 29.55 in1000.7 mb 0.00 in0.0 mm 0.00 in0.0 mm 0.01 in0.3 mm
09:35 AM 51.1°F10.6°C 45.1°F7.3°C 80% 19.0 mph SW30.6 kmh SW 29.0 mph46.7 kmh 29.55 in1000.7 mb 0.00 in0.0 mm 0.00 in0.0 mm 0.01 in0.3 mm
09:40 AM 50.9°F10.5°C 45.3°F7.4°C 81% 18.0 mph SW29.0 kmh SW 30.0 mph48.3 kmh 29.55 in1000.7 mb 0.00 in0.0 mm 0.00 in0.0 mm 0.01 in0.3 mm
09:45 AM 51.3°F10.7°C 45.3°F7.4°C 80% 20.0 mph SW32.2 kmh SW 29.0 mph46.7 kmh 29.55 in1000.7 mb 0.00 in0.0 mm 0.00 in0.0 mm 0.01 in0.3 mm
09:50 AM 51.1°F10.6°C 45.5°F7.5°C 81% 15.0 mph SW24.1 kmh SW 30.0 mph48.3 kmh 29.55 in1000.7 mb 0.00 in0.0 mm 0.00 in0.0 mm 0.01 in0.3 mm
09:55 AM 50.9°F10.5°C 45.7°F7.6°C 82% 17.0 mph SW27.4 kmh SW 26.0 mph41.8 kmh 29.54 in1000.3 mb 0.00 in0.0 mm 0.00 in0.0 mm 0.01 in0.3 mm
10:00 AM 50.9°F10.5°C 45.7°F7.6°C 82% 17.0 mph SW27.4 kmh SW 27.0 mph43.5 kmh 29.54 in1000.3 mb 0.00 in0.0 mm 0.00 in0.0 mm 0.01 in0.3 mm
10:05 AM 51.1°F10.6°C 45.5°F7.5°C 81% 14.0 mph SW22.5 kmh SW 25.0 mph40.2 kmh 29.54 in1000.3 mb 0.00 in0.0 mm 0.00 in0.0 mm 0.01 in0.3 mm
10:10 AM 51.1°F10.6°C 45.5°F7.5°C 81% 17.0 mph SW27.4 kmh SW 25.0 mph40.2 kmh 29.54 in1000.3 mb 0.00 in0.0 mm 0.00 in0.0 mm 0.01 in0.3 mm
10:15 AM 51.1°F10.6°C 45.5°F7.5°C 81% 18.0 mph SW29.0 kmh SW 28.0 mph45.1 kmh 29.53 in1000.0 mb 0.00 in0.0 mm 0.00 in0.0 mm 0.01 in0.3 mm
10:20 AM 51.1°F10.6°C 45.5°F7.5°C 81% 16.0 mph SW25.7 kmh SW 29.0 mph46.7 kmh 29.53 in1000.0 mb 0.00 in0.0 mm 0.00 in0.0 mm 0.01 in0.3 mm
10:25 AM 50.9°F10.5°C 45.7°F7.6°C 82% 17.0 mph SW27.4 kmh SW 28.0 mph45.1 kmh 29.52 in999.7 mb 0.00 in0.0 mm 0.00 in0.0 mm 0.01 in0.3 mm
10:30 AM 51.1°F10.6°C 45.5°F7.5°C 81% 18.0 mph SW29.0 kmh SW 29.0 mph46.7 kmh 29.53 in1000.0 mb 0.00 in0.0 mm 0.00 in0.0 mm 0.01 in0.3 mm
10:35 AM 51.3°F10.7°C 45.7°F7.6°C 81% 18.0 mph SW29.0 kmh SW 26.0 mph41.8 kmh 29.52 in999.7 mb 0.00 in0.0 mm 0.00 in0.0 mm 0.01 in0.3 mm
10:40 AM 51.1°F10.6°C 45.5°F7.5°C 81% 19.0 mph SW30.6 kmh SW 31.0 mph49.9 kmh 29.52 in999.7 mb 0.00 in0.0 mm 0.00 in0.0 mm 0.01 in0.3 mm
10:45 AM 51.3°F10.7°C 46.0°F7.8°C 82% 20.0 mph SW32.2 kmh SW 29.0 mph46.7 kmh 29.52 in999.7 mb 0.00 in0.0 mm 0.00 in0.0 mm 0.01 in0.3 mm
10:50 AM 51.6°F10.9°C 45.3°F7.4°C 79% 24.0 mph SW38.6 kmh SW 37.0 mph59.5 kmh 29.51 in999.3 mb 0.00 in0.0 mm 0.00 in0.0 mm 0.01 in0.3 mm
10:55 AM 52.3°F11.3°C 45.7°F7.6°C 78% 23.0 mph SW37.0 kmh SW 38.0 mph61.2 kmh 29.50 in999.0 mb 0.00 in0.0 mm 0.00 in0.0 mm 0.01 in0.3 mm
11:00 AM 53.4°F11.9°C 45.7°F7.6°C 75% 25.0 mph SW40.2 kmh SW 37.0 mph59.5 kmh 29.49 in998.6 mb 0.00 in0.0 mm 0.00 in0.0 mm 0.01 in0.3 mm
11:05 AM 53.8°F12.1°C 46.0°F7.8°C 75% 26.0 mph SW41.8 kmh SW 38.0 mph61.2 kmh 29.50 in999.0 mb 0.00 in0.0 mm 0.00 in0.0 mm 0.01 in0.3 mm
11:10 AM 53.2°F11.8°C 45.5°F7.5°C 75% 23.0 mph SW37.0 kmh SW 31.0 mph49.9 kmh 29.50 in999.0 mb 0.00 in0.0 mm 0.00 in0.0 mm 0.01 in0.3 mm
11:15 AM 52.9°F11.6°C 45.9°F7.7°C 77% 21.0 mph SW33.8 kmh SW 37.0 mph59.5 kmh 29.50 in999.0 mb 0.00 in0.0 mm 0.00 in0.0 mm 0.01 in0.3 mm
11:20 AM 52.9°F11.6°C 45.5°F7.5°C 76% 23.0 mph SW37.0 kmh SW 35.0 mph56.3 kmh 29.49 in998.6 mb 0.00 in0.0 mm 0.00 in0.0 mm 0.01 in0.3 mm
11:25 AM 52.9°F11.6°C 45.9°F7.7°C 77% 22.0 mph SW35.4 kmh SW 34.0 mph54.7 kmh 29.49 in998.6 mb 0.00 in0.0 mm 0.00 in0.0 mm 0.01 in0.3 mm
11:30 AM 52.5°F11.4°C 45.1°F7.3°C 76% 24.0 mph SW38.6 kmh SW 36.0 mph57.9 kmh 29.49 in998.6 mb 0.00 in0.0 mm 0.00 in0.0 mm 0.01 in0.3 mm
11:35 AM 52.9°F11.6°C 45.1°F7.3°C 75% 24.0 mph SW38.6 kmh SW 36.0 mph57.9 kmh 29.48 in998.3 mb 0.00 in0.0 mm 0.00 in0.0 mm 0.01 in0.3 mm
11:40 AM 52.9°F11.6°C 45.1°F7.3°C 75% 26.0 mph SW41.8 kmh SW 38.0 mph61.2 kmh 29.48 in998.3 mb 0.00 in0.0 mm 0.00 in0.0 mm 0.01 in0.3 mm
11:45 AM 52.9°F11.6°C 45.1°F7.3°C 75% 23.0 mph SW37.0 kmh SW 36.0 mph57.9 kmh 29.48 in998.3 mb 0.00 in0.0 mm 0.00 in0.0 mm 0.01 in0.3 mm
11:50 AM 52.9°F11.6°C 45.1°F7.3°C 75% 23.0 mph SW37.0 kmh SW 34.0 mph54.7 kmh 29.48 in998.3 mb 0.00 in0.0 mm 0.00 in0.0 mm 0.01 in0.3 mm
11:55 AM 52.9°F11.6°C 45.1°F7.3°C 75% 21.0 mph SW33.8 kmh SW 35.0 mph56.3 kmh 29.48 in998.3 mb 0.00 in0.0 mm 0.00 in0.0 mm 0.01 in0.3 mm
12:00 PM 52.9°F11.6°C 44.8°F7.1°C 74% 22.0 mph SW35.4 kmh SW 32.0 mph51.5 kmh 29.48 in998.3 mb 0.00 in0.0 mm 0.00 in0.0 mm 0.01 in0.3 mm
12:05 PM 52.9°F11.6°C 44.4°F6.9°C 73% 21.0 mph SSW33.8 kmh SSW 31.0 mph49.9 kmh 29.48 in998.3 mb 0.00 in0.0 mm 0.00 in0.0 mm 0.01 in0.3 mm
12:10 PM 52.9°F11.6°C 44.8°F7.1°C 74% 21.0 mph SSW33.8 kmh SSW 33.0 mph53.1 kmh 29.48 in998.3 mb 0.00 in0.0 mm 0.00 in0.0 mm 0.01 in0.3 mm
12:15 PM 52.9°F11.6°C 44.4°F6.9°C 73% 26.0 mph SSW41.8 kmh SSW 38.0 mph61.2 kmh 29.48 in998.3 mb 0.00 in0.0 mm 0.00 in0.0 mm 0.01 in0.3 mm
12:20 PM 52.5°F11.4°C 44.1°F6.7°C 73% 23.0 mph SSW37.0 kmh SSW 36.0 mph57.9 kmh 29.48 in998.3 mb 0.00 in0.0 mm 0.00 in0.0 mm 0.01 in0.3 mm
12:25 PM 52.5°F11.4°C 44.4°F6.9°C 74% 22.0 mph SW35.4 kmh SW 30.0 mph48.3 kmh 29.48 in998.3 mb 0.00 in0.0 mm 0.00 in0.0 mm 0.01 in0.3 mm
12:30 PM 52.5°F11.4°C 44.1°F6.7°C 73% 22.0 mph SSW35.4 kmh SSW 42.0 mph67.6 kmh 29.48 in998.3 mb 0.00 in0.0 mm 0.00 in0.0 mm 0.01 in0.3 mm
12:35 PM 52.7°F11.5°C 44.2°F6.8°C 73% 21.0 mph SSW33.8 kmh SSW 33.0 mph53.1 kmh 29.47 in998.0 mb 0.00 in0.0 mm 0.00 in0.0 mm 0.01 in0.3 mm
12:40 PM 52.5°F11.4°C 44.1°F6.7°C 73% 19.0 mph SW30.6 kmh SW 31.0 mph49.9 kmh 29.47 in998.0 mb 0.00 in0.0 mm 0.00 in0.0 mm 0.01 in0.3 mm
12:45 PM 52.5°F11.4°C 44.4°F6.9°C 74% 23.0 mph SSW37.0 kmh SSW 34.0 mph54.7 kmh 29.47 in998.0 mb 0.00 in0.0 mm 0.00 in0.0 mm 0.01 in0.3 mm
12:50 PM 52.3°F11.3°C 44.6°F7.0°C 75% 23.0 mph SW37.0 kmh SW 34.0 mph54.7 kmh 29.47 in998.0 mb 0.00 in0.0 mm 0.00 in0.0 mm 0.01 in0.3 mm
12:55 PM 52.3°F11.3°C 44.6°F7.0°C 75% 22.0 mph SW35.4 kmh SW 33.0 mph53.1 kmh 29.47 in998.0 mb 0.00 in0.0 mm 0.00 in0.0 mm 0.01 in0.3 mm
01:00 PM 52.2°F11.2°C 44.8°F7.1°C 76% 22.0 mph SW35.4 kmh SW 39.0 mph62.8 kmh 29.46 in997.6 mb 0.00 in0.0 mm 0.00 in0.0 mm 0.01 in0.3 mm
01:05 PM 52.3°F11.3°C 45.3°F7.4°C 77% 18.0 mph SW29.0 kmh SW 28.0 mph45.1 kmh 29.46 in997.6 mb 0.00 in0.0 mm 0.00 in0.0 mm 0.01 in0.3 mm
01:10 PM 52.3°F11.3°C 45.0°F7.2°C 76% 22.0 mph SW35.4 kmh SW 36.0 mph57.9 kmh 29.46 in997.6 mb 0.00 in0.0 mm 0.00 in0.0 mm 0.01 in0.3 mm
01:15 PM 52.5°F11.4°C 45.1°F7.3°C 76% 23.0 mph SW37.0 kmh SW 37.0 mph59.5 kmh 29.45 in997.3 mb 0.00 in0.0 mm 0.00 in0.0 mm 0.01 in0.3 mm
01:20 PM 52.5°F11.4°C 45.1°F7.3°C 76% 22.0 mph SW35.4 kmh SW 34.0 mph54.7 kmh 29.45 in997.3 mb 0.00 in0.0 mm 0.00 in0.0 mm 0.01 in0.3 mm
01:25 PM 52.7°F11.5°C 45.3°F7.4°C 76% 27.0 mph SW43.5 kmh SW 42.0 mph67.6 kmh 29.44 in997.0 mb 0.00 in0.0 mm 0.00 in0.0 mm 0.01 in0.3 mm
01:30 PM 52.9°F11.6°C 45.1°F7.3°C 75% 26.0 mph SW41.8 kmh SW 36.0 mph57.9 kmh 29.44 in997.0 mb 0.00 in0.0 mm 0.00 in0.0 mm 0.01 in0.3 mm
01:35 PM 52.9°F11.6°C 44.8°F7.1°C 74% 26.0 mph SW41.8 kmh SW 42.0 mph67.6 kmh 29.44 in997.0 mb 0.00 in0.0 mm 0.00 in0.0 mm 0.01 in0.3 mm
01:40 PM 53.1°F11.7°C 45.3°F7.4°C 75% 25.0 mph SW40.2 kmh SW 34.0 mph54.7 kmh 29.43 in996.6 mb 0.00 in0.0 mm 0.00 in0.0 mm 0.01 in0.3 mm
01:45 PM 53.2°F11.8°C 45.9°F7.7°C 76% 21.0 mph SW33.8 kmh SW 33.0 mph53.1 kmh 29.42 in996.3 mb 0.00 in0.0 mm 0.00 in0.0 mm 0.01 in0.3 mm
01:50 PM 53.1°F11.7°C 45.3°F7.4°C 75% 23.0 mph SW37.0 kmh SW 38.0 mph61.2 kmh 29.42 in996.3 mb 0.00 in0.0 mm 0.00 in0.0 mm 0.01 in0.3 mm
01:55 PM 53.1°F11.7°C 45.3°F7.4°C 75% 21.0 mph SW33.8 kmh SW 32.0 mph51.5 kmh 29.42 in996.3 mb 0.00 in0.0 mm 0.00 in0.0 mm 0.01 in0.3 mm
02:00 PM 53.1°F11.7°C 45.7°F7.6°C 76% 23.0 mph SW37.0 kmh SW 34.0 mph54.7 kmh 29.42 in996.3 mb 0.00 in0.0 mm 0.00 in0.0 mm 0.01 in0.3 mm
02:05 PM 53.2°F11.8°C 45.5°F7.5°C 75% 24.0 mph SW38.6 kmh SW 36.0 mph57.9 kmh 29.41 in995.9 mb 0.00 in0.0 mm 0.00 in0.0 mm 0.01 in0.3 mm
02:10 PM 53.4°F11.9°C 45.3°F7.4°C 74% 22.0 mph SW35.4 kmh SW 31.0 mph49.9 kmh 29.41 in995.9 mb 0.00 in0.0 mm 0.00 in0.0 mm 0.01 in0.3 mm
02:15 PM 53.8°F12.1°C 45.7°F7.6°C 74% 23.0 mph SW37.0 kmh SW 38.0 mph61.2 kmh 29.41 in995.9 mb 0.00 in0.0 mm 0.00 in0.0 mm 0.01 in0.3 mm
02:20 PM 53.1°F11.7°C 45.0°F7.2°C 74% 26.0 mph SW41.8 kmh SW 41.0 mph66.0 kmh 29.40 in995.6 mb 0.00 in0.0 mm 0.00 in0.0 mm 0.01 in0.3 mm
02:25 PM 53.1°F11.7°C 45.3°F7.4°C 75% 24.0 mph SW38.6 kmh SW 38.0 mph61.2 kmh 29.39 in995.3 mb 0.00 in0.0 mm 0.00 in0.0 mm 0.01 in0.3 mm
02:30 PM 53.2°F11.8°C 45.5°F7.5°C 75% 22.0 mph SW35.4 kmh SW 33.0 mph53.1 kmh 29.39 in995.3 mb 0.00 in0.0 mm 0.00 in0.0 mm 0.01 in0.3 mm
02:35 PM 53.2°F11.8°C 45.5°F7.5°C 75% 23.0 mph SW37.0 kmh SW 36.0 mph57.9 kmh 29.39 in995.3 mb 0.00 in0.0 mm 0.00 in0.0 mm 0.01 in0.3 mm
02:40 PM 53.2°F11.8°C 45.5°F7.5°C 75% 23.0 mph SW37.0 kmh SW 34.0 mph54.7 kmh 29.39 in995.3 mb 0.00 in0.0 mm 0.00 in0.0 mm 0.01 in0.3 mm
02:45 PM 53.4°F11.9°C 45.7°F7.6°C 75% 30.0 mph SW48.3 kmh SW 43.0 mph69.2 kmh 29.38 in994.9 mb 0.00 in0.0 mm 0.00 in0.0 mm 0.01 in0.3 mm
02:50 PM 53.1°F11.7°C 45.3°F7.4°C 75% 24.0 mph SW38.6 kmh SW 36.0 mph57.9 kmh 29.38 in994.9 mb 0.00 in0.0 mm 0.00 in0.0 mm 0.01 in0.3 mm
02:55 PM 52.9°F11.6°C 45.5°F7.5°C 76% 27.0 mph SW43.5 kmh SW 43.0 mph69.2 kmh 29.37 in994.6 mb 0.00 in0.0 mm 0.00 in0.0 mm 0.01 in0.3 mm
03:00 PM 53.1°F11.7°C 46.0°F7.8°C 77% 26.0 mph SW41.8 kmh SW 39.0 mph62.8 kmh 29.37 in994.6 mb 0.00 in0.0 mm 0.00 in0.0 mm 0.01 in0.3 mm
03:05 PM 52.7°F11.5°C 45.7°F7.6°C 77% 27.0 mph SW43.5 kmh SW 37.0 mph59.5 kmh 29.37 in994.6 mb 0.00 in0.0 mm 0.00 in0.0 mm 0.01 in0.3 mm
03:10 PM 52.5°F11.4°C 45.5°F7.5°C 77% 28.0 mph SW45.1 kmh SW 39.0 mph62.8 kmh 29.36 in994.2 mb 0.00 in0.0 mm 0.00 in0.0 mm 0.01 in0.3 mm
03:15 PM 52.5°F11.4°C 45.9°F7.7°C 78% 23.0 mph SW37.0 kmh SW 37.0 mph59.5 kmh 29.37 in994.6 mb 0.00 in0.0 mm 0.00 in0.0 mm 0.01 in0.3 mm
03:20 PM 52.3°F11.3°C 45.7°F7.6°C 78% 23.0 mph SW37.0 kmh SW 34.0 mph54.7 kmh 29.37 in994.6 mb 0.00 in0.0 mm 0.00 in0.0 mm 0.01 in0.3 mm
03:25 PM 52.2°F11.2°C 45.9°F7.7°C 79% 24.0 mph SW38.6 kmh SW 34.0 mph54.7 kmh 29.36 in994.2 mb 0.00 in0.0 mm 0.00 in0.0 mm 0.01 in0.3 mm
03:30 PM 52.3°F11.3°C 45.7°F7.6°C 78% 22.0 mph SW35.4 kmh SW 35.0 mph56.3 kmh 29.36 in994.2 mb 0.00 in0.0 mm 0.00 in0.0 mm 0.01 in0.3 mm
03:35 PM 52.3°F11.3°C 45.7°F7.6°C 78% 22.0 mph SW35.4 kmh SW 35.0 mph56.3 kmh 29.36 in994.2 mb 0.00 in0.0 mm 0.00 in0.0 mm 0.01 in0.3 mm
03:40 PM 52.5°F11.4°C 45.9°F7.7°C 78% 24.0 mph SW38.6 kmh SW 33.0 mph53.1 kmh 29.36 in994.2 mb 0.00 in0.0 mm 0.00 in0.0 mm 0.01 in0.3 mm
03:45 PM 52.5°F11.4°C 45.5°F7.5°C 77% 27.0 mph SW43.5 kmh SW 39.0 mph62.8 kmh 29.36 in994.2 mb 0.00 in0.0 mm 0.00 in0.0 mm 0.01 in0.3 mm
03:50 PM 52.5°F11.4°C 45.5°F7.5°C 77% 22.0 mph SW35.4 kmh SW 35.0 mph56.3 kmh 29.36 in994.2 mb 0.00 in0.0 mm 0.00 in0.0 mm 0.01 in0.3 mm
03:55 PM 52.5°F11.4°C 45.5°F7.5°C 77% 24.0 mph SW38.6 kmh SW 34.0 mph54.7 kmh 29.35 in993.9 mb 0.00 in0.0 mm 0.00 in0.0 mm 0.01 in0.3 mm
04:00 PM 52.7°F11.5°C 45.7°F7.6°C 77% 23.0 mph SW37.0 kmh SW 33.0 mph53.1 kmh 29.35 in993.9 mb 0.00 in0.0 mm 0.00 in0.0 mm 0.01 in0.3 mm
04:05 PM 52.5°F11.4°C 45.5°F7.5°C 77% 24.0 mph SW38.6 kmh SW 37.0 mph59.5 kmh 29.35 in993.9 mb 0.00 in0.0 mm 0.00 in0.0 mm 0.01 in0.3 mm
04:10 PM 52.5°F11.4°C 45.9°F7.7°C 78% 21.0 mph SW33.8 kmh SW 29.0 mph46.7 kmh 29.35 in993.9 mb 0.00 in0.0 mm 0.00 in0.0 mm 0.01 in0.3 mm
04:15 PM 52.7°F11.5°C 45.7°F7.6°C 77% 23.0 mph SW37.0 kmh SW 34.0 mph54.7 kmh 29.34 in993.6 mb 0.00 in0.0 mm 0.00 in0.0 mm 0.01 in0.3 mm
04:20 PM 52.7°F11.5°C 45.7°F7.6°C 77% 24.0 mph SW38.6 kmh SW 34.0 mph54.7 kmh 29.34 in993.6 mb 0.00 in0.0 mm 0.00 in0.0 mm 0.01 in0.3 mm
04:25 PM 52.5°F11.4°C 45.5°F7.5°C 77% 24.0 mph SW38.6 kmh SW 34.0 mph54.7 kmh 29.34 in993.6 mb 0.00 in0.0 mm 0.00 in0.0 mm 0.01 in0.3 mm
04:30 PM 52.5°F11.4°C 45.9°F7.7°C 78% 23.0 mph SW37.0 kmh SW 32.0 mph51.5 kmh 29.34 in993.6 mb 0.00 in0.0 mm 0.00 in0.0 mm 0.01 in0.3 mm
04:35 PM 52.3°F11.3°C 46.0°F7.8°C 79% 19.0 mph SW30.6 kmh SW 32.0 mph51.5 kmh 29.34 in993.6 mb 0.00 in0.0 mm 0.00 in0.0 mm 0.01 in0.3 mm
04:40 PM 52.2°F11.2°C 45.9°F7.7°C 79% 19.0 mph SW30.6 kmh SW 29.0 mph46.7 kmh 29.33 in993.2 mb 0.00 in0.0 mm 0.00 in0.0 mm 0.01 in0.3 mm
04:45 PM 51.6°F10.9°C 46.0°F7.8°C 81% 21.0 mph SW33.8 kmh SW 32.0 mph51.5 kmh 29.33 in993.2 mb 0.00 in0.0 mm 0.00 in0.0 mm 0.01 in0.3 mm
04:50 PM 51.4°F10.8°C 46.0°F7.8°C 82% 18.0 mph SW29.0 kmh SW 28.0 mph45.1 kmh 29.34 in993.6 mb 0.00 in0.0 mm 0.00 in0.0 mm 0.01 in0.3 mm
04:55 PM 51.1°F10.6°C 46.0°F7.8°C 83% 20.0 mph SW32.2 kmh SW 35.0 mph56.3 kmh 29.33 in993.2 mb 0.00 in0.0 mm 0.00 in0.0 mm 0.01 in0.3 mm
05:00 PM 51.1°F10.6°C 46.4°F8.0°C 84% 19.0 mph SW30.6 kmh SW 29.0 mph46.7 kmh 29.33 in993.2 mb 0.00 in0.0 mm 0.00 in0.0 mm 0.01 in0.3 mm
05:05 PM 51.1°F10.6°C 46.4°F8.0°C 84% 20.0 mph SW32.2 kmh SW 29.0 mph46.7 kmh 29.33 in993.2 mb 0.00 in0.0 mm 0.00 in0.0 mm 0.01 in0.3 mm
05:10 PM 51.1°F10.6°C 46.4°F8.0°C 84% 19.0 mph SW30.6 kmh SW 30.0 mph48.3 kmh 29.33 in993.2 mb 0.00 in0.0 mm 0.00 in0.0 mm 0.01 in0.3 mm
05:15 PM 50.7°F10.4°C 46.4°F8.0°C 85% 21.0 mph SW33.8 kmh SW 32.0 mph51.5 kmh 29.33 in993.2 mb 0.00 in0.0 mm 0.00 in0.0 mm 0.01 in0.3 mm
05:20 PM 50.7°F10.4°C 46.8°F8.2°C 86% 20.0 mph SW32.2 kmh SW 29.0 mph46.7 kmh 29.33 in993.2 mb 0.00 in0.0 mm 0.00 in0.0 mm 0.01 in0.3 mm
05:25 PM 50.5°F10.3°C 46.6°F8.1°C 86% 19.0 mph SW30.6 kmh SW 32.0 mph51.5 kmh 29.32 in992.9 mb 0.00 in0.0 mm 0.00 in0.0 mm 0.01 in0.3 mm
05:30 PM 50.5°F10.3°C 46.6°F8.1°C 86% 18.0 mph SW29.0 kmh SW 28.0 mph45.1 kmh 29.32 in992.9 mb 0.00 in0.0 mm 0.00 in0.0 mm 0.01 in0.3 mm
05:35 PM 50.5°F10.3°C 46.6°F8.1°C 86% 20.0 mph SSW32.2 kmh SSW 35.0 mph56.3 kmh 29.32 in992.9 mb 0.01 in0.3 mm 0.09 in2.3 mm 0.02 in0.5 mm
05:40 PM 50.4°F10.2°C 46.4°F8.0°C 86% 18.0 mph SSW29.0 kmh SSW 25.0 mph40.2 kmh 29.32 in992.9 mb 0.01 in0.3 mm 0.00 in0.0 mm 0.02 in0.5 mm
05:45 PM 50.4°F10.2°C 46.6°F8.1°C 87% 18.0 mph SW29.0 kmh SW 28.0 mph45.1 kmh 29.32 in992.9 mb 0.01 in0.3 mm 0.00 in0.0 mm 0.02 in0.5 mm
05:50 PM 50.4°F10.2°C 46.6°F8.1°C 87% 18.0 mph SW29.0 kmh SW 28.0 mph45.1 kmh 29.31 in992.6 mb 0.01 in0.3 mm 0.00 in0.0 mm 0.02 in0.5 mm
05:55 PM 50.4°F10.2°C 46.6°F8.1°C 87% 17.0 mph SW27.4 kmh SW 29.0 mph46.7 kmh 29.31 in992.6 mb 0.02 in0.5 mm 0.09 in2.3 mm 0.02 in0.5 mm
06:00 PM 50.4°F10.2°C 46.4°F8.0°C 86% 18.0 mph SW29.0 kmh SW 28.0 mph45.1 kmh 29.31 in992.6 mb 0.02 in0.5 mm 0.00 in0.0 mm 0.02 in0.5 mm
06:05 PM 50.4°F10.2°C 46.4°F8.0°C 86% 18.0 mph SW29.0 kmh SW 26.0 mph41.8 kmh 29.31 in992.6 mb 0.02 in0.5 mm 0.00 in0.0 mm 0.02 in0.5 mm
06:10 PM 50.4°F10.2°C 46.6°F8.1°C 87% 16.0 mph SSW25.7 kmh SSW 24.0 mph38.6 kmh 29.31 in992.6 mb 0.02 in0.5 mm 0.09 in2.3 mm 0.03 in0.8 mm
06:15 PM 50.2°F10.1°C 46.4°F8.0°C 87% 16.0 mph SW25.7 kmh SW 27.0 mph43.5 kmh 29.31 in992.6 mb 0.03 in0.8 mm 0.09 in2.3 mm 0.04 in1.0 mm
06:20 PM 50.2°F10.1°C 46.4°F8.0°C 87% 17.0 mph SSW27.4 kmh SSW 32.0 mph51.5 kmh 29.31 in992.6 mb 0.03 in0.8 mm 0.00 in0.0 mm 0.04 in1.0 mm
06:25 PM 50.2°F10.1°C 46.8°F8.2°C 88% 19.0 mph SW30.6 kmh SW 27.0 mph43.5 kmh 29.31 in992.6 mb 0.05 in1.3 mm 0.19 in4.8 mm 0.06 in1.5 mm
06:30 PM 49.6°F9.8°C 46.6°F8.1°C 89% 18.0 mph SW29.0 kmh SW 29.0 mph46.7 kmh 29.32 in992.9 mb 0.06 in1.5 mm 0.09 in2.3 mm 0.06 in1.5 mm
06:35 PM 49.6°F9.8°C 46.6°F8.1°C 89% 17.0 mph SW27.4 kmh SW 27.0 mph43.5 kmh 29.31 in992.6 mb 0.05 in1.3 mm 0.00 in0.0 mm 0.06 in1.5 mm
06:40 PM 49.6°F9.8°C 46.6°F8.1°C 89% 16.0 mph SW25.7 kmh SW 22.0 mph35.4 kmh 29.31 in992.6 mb 0.06 in1.5 mm 0.09 in2.3 mm 0.07 in1.8 mm
06:45 PM 49.5°F9.7°C 46.4°F8.0°C 89% 14.0 mph SW22.5 kmh SW 22.0 mph35.4 kmh 29.32 in992.9 mb 0.06 in1.5 mm 0.00 in0.0 mm 0.07 in1.8 mm
06:50 PM 49.1°F9.5°C 46.0°F7.8°C 89% 11.0 mph SW17.7 kmh SW 17.0 mph27.4 kmh 29.31 in992.6 mb 0.06 in1.5 mm 0.00 in0.0 mm 0.07 in1.8 mm
06:55 PM 48.9°F9.4°C 45.5°F7.5°C 88% 13.0 mph SW20.9 kmh SW 21.0 mph33.8 kmh 29.31 in992.6 mb 0.05 in1.3 mm 0.00 in0.0 mm 0.07 in1.8 mm
07:00 PM 49.1°F9.5°C 46.0°F7.8°C 89% 11.0 mph SW17.7 kmh SW 19.0 mph30.6 kmh 29.32 in992.9 mb 0.05 in1.3 mm 0.00 in0.0 mm 0.07 in1.8 mm
07:05 PM 48.9°F9.4°C 45.5°F7.5°C 88% 12.0 mph SW19.3 kmh SW 19.0 mph30.6 kmh 29.32 in992.9 mb 0.05 in1.3 mm 0.00 in0.0 mm 0.07 in1.8 mm
07:10 PM 48.7°F9.3°C 45.3°F7.4°C 88% 12.0 mph SW19.3 kmh SW 20.0 mph32.2 kmh 29.32 in992.9 mb 0.05 in1.3 mm 0.00 in0.0 mm 0.08 in2.0 mm
07:15 PM 48.4°F9.1°C 44.6°F7.0°C 87% 15.0 mph SW24.1 kmh SW 23.0 mph37.0 kmh 29.32 in992.9 mb 0.04 in1.0 mm 0.00 in0.0 mm 0.08 in2.0 mm
07:20 PM 48.4°F9.1°C 45.0°F7.2°C 88% 12.0 mph SW19.3 kmh SW 21.0 mph33.8 kmh 29.33 in993.2 mb 0.04 in1.0 mm 0.00 in0.0 mm 0.08 in2.0 mm
07:25 PM 48.2°F9.0°C 44.8°F7.1°C 88% 10.0 mph SW16.1 kmh SW 17.0 mph27.4 kmh 29.33 in993.2 mb 0.02 in0.5 mm 0.00 in0.0 mm 0.08 in2.0 mm
07:30 PM 48.0°F8.9°C 45.0°F7.2°C 89% 10.0 mph SW16.1 kmh SW 18.0 mph29.0 kmh 29.33 in993.2 mb 0.02 in0.5 mm 0.00 in0.0 mm 0.08 in2.0 mm
07:35 PM 47.8°F8.8°C 44.8°F7.1°C 89% 10.0 mph SW16.1 kmh SW 16.0 mph25.7 kmh 29.33 in993.2 mb 0.02 in0.5 mm 0.00 in0.0 mm 0.08 in2.0 mm
07:40 PM 47.8°F8.8°C 44.8°F7.1°C 89% 13.0 mph SW20.9 kmh SW 17.0 mph27.4 kmh 29.34 in993.6 mb 0.02 in0.5 mm 0.00 in0.0 mm 0.09 in2.3 mm
07:45 PM 47.7°F8.7°C 44.6°F7.0°C 89% 12.0 mph SW19.3 kmh SW 18.0 mph29.0 kmh 29.34 in993.6 mb 0.02 in0.5 mm 0.00 in0.0 mm 0.09 in2.3 mm
07:50 PM 47.7°F8.7°C 44.6°F7.0°C 89% 14.0 mph SW22.5 kmh SW 20.0 mph32.2 kmh 29.34 in993.6 mb 0.02 in0.5 mm 0.00 in0.0 mm 0.09 in2.3 mm
07:55 PM 47.5°F8.6°C 44.4°F6.9°C 89% 14.0 mph SW22.5 kmh SW 22.0 mph35.4 kmh 29.34 in993.6 mb 0.02 in0.5 mm 0.00 in0.0 mm 0.09 in2.3 mm
08:00 PM 47.5°F8.6°C 44.1°F6.7°C 88% 13.0 mph SW20.9 kmh SW 20.0 mph32.2 kmh 29.34 in993.6 mb 0.02 in0.5 mm 0.00 in0.0 mm 0.09 in2.3 mm
08:05 PM 47.3°F8.5°C 44.2°F6.8°C 89% 13.0 mph SW20.9 kmh SW 21.0 mph33.8 kmh 29.34 in993.6 mb 0.02 in0.5 mm 0.00 in0.0 mm 0.09 in2.3 mm
08:10 PM 47.1°F8.4°C 44.1°F6.7°C 89% 11.0 mph SW17.7 kmh SW 17.0 mph27.4 kmh 29.34 in993.6 mb 0.01 in0.3 mm 0.00 in0.0 mm 0.09 in2.3 mm
08:15 PM 47.1°F8.4°C 44.1°F6.7°C 89% 10.0 mph WSW16.1 kmh WSW 15.0 mph24.1 kmh 29.36 in994.2 mb 0.02 in0.5 mm 0.19 in4.8 mm 0.10 in2.5 mm
08:20 PM 46.8°F8.2°C 43.3°F6.3°C 88% 11.0 mph W17.7 kmh W 21.0 mph33.8 kmh 29.36 in994.2 mb 0.03 in0.8 mm 0.09 in2.3 mm 0.11 in2.8 mm
08:25 PM 46.0°F7.8°C 41.7°F5.4°C 85% 10.0 mph W16.1 kmh W 16.0 mph25.7 kmh 29.36 in994.2 mb 0.03 in0.8 mm 0.00 in0.0 mm 0.11 in2.8 mm
08:30 PM 45.5°F7.5°C 41.2°F5.1°C 85% 8.0 mph W12.9 kmh W 14.0 mph22.5 kmh 29.36 in994.2 mb 0.03 in0.8 mm 0.00 in0.0 mm 0.11 in2.8 mm
08:35 PM 45.1°F7.3°C 41.2°F5.1°C 86% 9.0 mph W14.5 kmh W 14.0 mph22.5 kmh 29.36 in994.2 mb 0.04 in1.0 mm 0.09 in2.3 mm 0.12 in3.0 mm
08:40 PM 45.0°F7.2°C 41.0°F5.0°C 86% 8.0 mph W12.9 kmh W 13.0 mph20.9 kmh 29.37 in994.6 mb 0.03 in0.8 mm 0.00 in0.0 mm 0.12 in3.0 mm
08:45 PM 44.8°F7.1°C 40.8°F4.9°C 86% 7.0 mph W11.3 kmh W 14.0 mph22.5 kmh 29.37 in994.6 mb 0.03 in0.8 mm 0.00 in0.0 mm 0.12 in3.0 mm
08:50 PM 44.6°F7.0°C 40.6°F4.8°C 86% 7.0 mph W11.3 kmh W 13.0 mph20.9 kmh 29.38 in994.9 mb 0.03 in0.8 mm 0.00 in0.0 mm 0.12 in3.0 mm
08:55 PM 44.4°F6.9°C 40.5°F4.7°C 86% 7.0 mph W11.3 kmh W 14.0 mph22.5 kmh 29.38 in994.9 mb 0.03 in0.8 mm 0.00 in0.0 mm 0.12 in3.0 mm
09:00 PM 44.2°F6.8°C 40.6°F4.8°C 87% 5.0 mph W8.0 kmh W 10.0 mph16.1 kmh 29.38 in994.9 mb 0.03 in0.8 mm 0.00 in0.0 mm 0.12 in3.0 mm
09:05 PM 44.2°F6.8°C 40.3°F4.6°C 86% 4.0 mph W6.4 kmh W 8.0 mph12.9 kmh 29.38 in994.9 mb 0.03 in0.8 mm 0.00 in0.0 mm 0.12 in3.0 mm
09:10 PM 44.2°F6.8°C 40.3°F4.6°C 86% 5.0 mph W8.0 kmh W 9.0 mph14.5 kmh 29.38 in994.9 mb 0.03 in0.8 mm 0.00 in0.0 mm 0.12 in3.0 mm
09:15 PM 44.1°F6.7°C 40.1°F4.5°C 86% 3.0 mph W4.8 kmh W 7.0 mph11.3 kmh 29.38 in994.9 mb 0.02 in0.5 mm 0.00 in0.0 mm 0.12 in3.0 mm
09:20 PM 43.9°F6.6°C 40.3°F4.6°C 87% 2.0 mph WSW3.2 kmh WSW 6.0 mph9.7 kmh 29.38 in994.9 mb 0.01 in0.3 mm 0.00 in0.0 mm 0.12 in3.0 mm
09:25 PM 43.7°F6.5°C 40.1°F4.5°C 87% 4.0 mph WSW6.4 kmh WSW 8.0 mph12.9 kmh 29.39 in995.3 mb 0.01 in0.3 mm 0.00 in0.0 mm 0.12 in3.0 mm
09:30 PM 43.7°F6.5°C 40.1°F4.5°C 87% 4.0 mph WSW6.4 kmh WSW 9.0 mph14.5 kmh 29.39 in995.3 mb 0.01 in0.3 mm 0.00 in0.0 mm 0.12 in3.0 mm
09:35 PM 43.7°F6.5°C 40.1°F4.5°C 87% 2.0 mph WSW3.2 kmh WSW 7.0 mph11.3 kmh 29.39 in995.3 mb 0.00 in0.0 mm 0.00 in0.0 mm 0.12 in3.0 mm
09:40 PM 43.7°F6.5°C 40.1°F4.5°C 87% 3.0 mph WSW4.8 kmh WSW 7.0 mph11.3 kmh 29.39 in995.3 mb 0.00 in0.0 mm 0.00 in0.0 mm 0.12 in3.0 mm
09:45 PM 43.5°F6.4°C 39.9°F4.4°C 87% Calm Calm 3.0 mph4.8 kmh 29.39 in995.3 mb 0.00 in0.0 mm 0.00 in0.0 mm 0.12 in3.0 mm
09:50 PM 43.3°F6.3°C 40.1°F4.5°C 88% 2.0 mph WSW3.2 kmh WSW 5.0 mph8.0 kmh 29.39 in995.3 mb 0.00 in0.0 mm 0.00 in0.0 mm 0.12 in3.0 mm
09:55 PM 43.5°F6.4°C 40.3°F4.6°C 88% 1.0 mph WSW1.6 kmh WSW 5.0 mph8.0 kmh 29.39 in995.3 mb 0.00 in0.0 mm 0.00 in0.0 mm 0.12 in3.0 mm
10:00 PM 43.5°F6.4°C 40.5°F4.7°C 89% 1.0 mph SW1.6 kmh SW 6.0 mph9.7 kmh 29.39 in995.3 mb 0.00 in0.0 mm 0.00 in0.0 mm 0.12 in3.0 mm
10:05 PM 43.3°F6.3°C 40.1°F4.5°C 88% 1.0 mph WSW1.6 kmh WSW 4.0 mph6.4 kmh 29.39 in995.3 mb 0.00 in0.0 mm 0.00 in0.0 mm 0.12 in3.0 mm
10:10 PM 43.3°F6.3°C 40.1°F4.5°C 88% Calm Calm -- 29.40 in995.6 mb 0.00 in0.0 mm 0.00 in0.0 mm 0.12 in3.0 mm
10:15 PM 43.2°F6.2°C 39.9°F4.4°C 88% Calm Calm -- 29.40 in995.6 mb 0.00 in0.0 mm 0.00 in0.0 mm 0.12 in3.0 mm
10:20 PM 43.2°F6.2°C 40.1°F4.5°C 89% Calm Calm -- 29.40 in995.6 mb 0.00 in0.0 mm 0.00 in0.0 mm 0.12 in3.0 mm
10:25 PM 43.2°F6.2°C 40.1°F4.5°C 89% Calm Calm -- 29.40 in995.6 mb 0.00 in0.0 mm 0.00 in0.0 mm 0.12 in3.0 mm
10:30 PM 43.0°F6.1°C 39.9°F4.4°C 89% Calm Calm -- 29.41 in995.9 mb 0.00 in0.0 mm 0.00 in0.0 mm 0.12 in3.0 mm
10:35 PM 43.0°F6.1°C 39.7°F4.3°C 88% Calm Calm 4.0 mph6.4 kmh 29.41 in995.9 mb 0.00 in0.0 mm 0.00 in0.0 mm 0.12 in3.0 mm
10:40 PM 43.0°F6.1°C 39.7°F4.3°C 88% Calm Calm 2.0 mph3.2 kmh 29.40 in995.6 mb 0.00 in0.0 mm 0.00 in0.0 mm 0.12 in3.0 mm
10:45 PM 43.0°F6.1°C 39.7°F4.3°C 88% 1.0 mph SSW1.6 kmh SSW 6.0 mph9.7 kmh 29.40 in995.6 mb 0.00 in0.0 mm 0.00 in0.0 mm 0.12 in3.0 mm
10:50 PM 43.0°F6.1°C 39.4°F4.1°C 87% 1.0 mph SSW1.6 kmh SSW 6.0 mph9.7 kmh 29.40 in995.6 mb 0.00 in0.0 mm 0.00 in0.0 mm 0.12 in3.0 mm
10:55 PM 43.0°F6.1°C 39.4°F4.1°C 87% 1.0 mph WSW1.6 kmh WSW 6.0 mph9.7 kmh 29.41 in995.9 mb 0.00 in0.0 mm 0.00 in0.0 mm 0.12 in3.0 mm
11:00 PM 43.0°F6.1°C 38.8°F3.8°C 85% 4.0 mph WSW6.4 kmh WSW 8.0 mph12.9 kmh 29.41 in995.9 mb 0.00 in0.0 mm 0.00 in0.0 mm 0.12 in3.0 mm
11:05 PM 42.4°F5.8°C 38.3°F3.5°C 85% 4.0 mph WSW6.4 kmh WSW 9.0 mph14.5 kmh 29.41 in995.9 mb 0.00 in0.0 mm 0.00 in0.0 mm 0.12 in3.0 mm
11:10 PM 42.4°F5.8°C 38.3°F3.5°C 85% 4.0 mph WSW6.4 kmh WSW 8.0 mph12.9 kmh 29.41 in995.9 mb 0.00 in0.0 mm 0.00 in0.0 mm 0.12 in3.0 mm
11:15 PM 42.3°F5.7°C 38.1°F3.4°C 85% 4.0 mph W6.4 kmh W 8.0 mph12.9 kmh 29.41 in995.9 mb 0.00 in0.0 mm 0.00 in0.0 mm 0.12 in3.0 mm
11:20 PM 41.9°F5.5°C 37.8°F3.2°C 85% 3.0 mph WSW4.8 kmh WSW 8.0 mph12.9 kmh 29.41 in995.9 mb 0.00 in0.0 mm 0.00 in0.0 mm 0.12 in3.0 mm
11:25 PM 41.9°F5.5°C 37.8°F3.2°C 85% 4.0 mph W6.4 kmh W 11.0 mph17.7 kmh 29.41 in995.9 mb 0.00 in0.0 mm 0.00 in0.0 mm 0.12 in3.0 mm
11:30 PM 41.7°F5.4°C 37.8°F3.2°C 86% 4.0 mph W6.4 kmh W 11.0 mph17.7 kmh 29.42 in996.3 mb 0.00 in0.0 mm 0.00 in0.0 mm 0.12 in3.0 mm
11:35 PM 41.9°F5.5°C 37.8°F3.2°C 85% 5.0 mph W8.0 kmh W 10.0 mph16.1 kmh 29.42 in996.3 mb 0.00 in0.0 mm 0.00 in0.0 mm 0.12 in3.0 mm
11:40 PM 41.9°F5.5°C 37.8°F3.2°C 85% 6.0 mph W9.7 kmh W 12.0 mph19.3 kmh 29.42 in996.3 mb 0.00 in0.0 mm 0.00 in0.0 mm 0.12 in3.0 mm
11:45 PM 41.5°F5.3°C 37.4°F3.0°C 85% 4.0 mph WSW6.4 kmh WSW 9.0 mph14.5 kmh 29.42 in996.3 mb 0.00 in0.0 mm 0.00 in0.0 mm 0.12 in3.0 mm
11:50 PM 41.4°F5.2°C 37.4°F3.0°C 86% 7.0 mph WSW11.3 kmh WSW 13.0 mph20.9 kmh 29.43 in996.6 mb 0.00 in0.0 mm 0.00 in0.0 mm 0.12 in3.0 mm
11:55 PM 41.5°F5.3°C 37.6°F3.1°C 86% 6.0 mph WSW9.7 kmh WSW 11.0 mph17.7 kmh 29.43 in996.6 mb 0.00 in0.0 mm 0.00 in0.0 mm 0.12 in3.0 mm